Retour au catalogue

STARLINK-3393

ActifCommunicationsVLEO
NORAD 51132·PAYLOAD·🇺🇸 United States

Lancé Jan 19, 2022 depuis Cape Canaveral Space Force Station

Loading…

Prochains Passages (prochaines 24 heures)

TLE

FraisSource: CelesTrak SupGP

Époque: Sep 14, 2026, 21:10 UTC

1 51132C 22005AE  26257.88243056 -.00067876  00000+0 -20053-2 0  2573
2 51132  53.1589 164.0758 0001313  95.5524 140.1988 15.34426032    16

Suivez STARLINK-3393 en temps réel avec AllMySat

Download on the App Store